Location: Les Thiberg�res
(47.8554°N, 1.0978°W)
Time: 08:51:49
(UTC+00:00)

STARLINK-1137 - Pass Details

Date: 17 February 2020
Orbit: 379 x 380 km, 53.0° (Epoch: 28 March)

Event Time Altitude Azimuth Distance (km) Brightness Sun altitude
Exits shadow 05:06:26 30° 14° (NNE) 722 4.4 -21.0°
Drops below altitude 10° 05:08:48 10° 59° (ENE) 1,412 6.6 -20.6°
Enters shadow 06:02:26 -74° 267° (W) 12,637 10.5 -11.6°
Maximum altitude 06:42:16 37° 13° (NNE) 616 3.9 -5.0°
